Location: Newark
(51.0967°N, 24.7917°E)
Time: 11:53:58
(UTC+00:00)

STARLINK-1259 - Pass Details

Date: 02 April 2020
Orbit: 379 x 380 km, 53.0° (Epoch: 06 June)

Event Time Altitude Azimuth Distance (km) Brightness Sun altitude
Exits shadow 00:58:17 16° 95° (E) 1,104 5.6 -24.9°
Drops below altitude 10° 00:59:12 10° 84° (E) 1,417 6.3 -24.8°
Sets 01:01:25 0° 73° (ENE) 2,273 7.7 -24.6°
